W7YP Weather Reports


time (UTC)temp
F
wind
direction
speed
knots
gust
knots
rain 1hr
in
rain 24hr
in
rain mn
in
humidity
%
barometer
mb
20260510050137 48 272 0.0 0.9 0.00 0.00 0.00 80 1019.7
20260510045626 48 272 0.0 0.9 0.00 0.00 0.00 80 1019.8
20260510045127 49 272 0.0 0.0 0.00 0.00 0.00 80 1019.8
20260510044627 49 272 0.0 1.7 0.00 0.00 0.00 81 1019.8
20260510044130 49 272 0.0 1.7 0.00 0.00 0.00 79 1019.7
20260510043623 49 272 0.0 0.0 0.00 0.00 0.00 79 1019.8
20260510043608 49 272 0.0 0.0 0.00 0.00 0.00 79 1019.8
20260510042613 50 272 0.0 0.0 0.00 0.00 0.00 78 1019.7
20260510042113 50 272 0.0 0.0 0.00 0.00 0.00 78 1019.7
20260510041615 50 272 0.0 0.0 0.00 0.00 0.00 76 1019.7
20260510041337 51 272 0.0 0.0 0.00 0.00 0.00 76 1019.7
20260510040613 51 272 0.0 0.0 0.00 0.00 0.00 76 1019.7
20260510040108 51 272 0.0 0.0 0.00 0.00 0.00 75 1019.6
20260510035608 52 272 0.0 0.0 0.00 0.00 0.00 75 1019.5
20260510035109 52 272 0.0 0.0 0.00 0.00 0.00 75 1019.5
20260510034609 52 272 0.0 0.0 0.00 0.00 0.00 75 1019.4
20260510034109 53 272 0.0 0.0 0.00 0.00 0.00 73 1019.3
20260510033605 53 272 0.0 0.0 0.00 0.00 0.00 73 1019.2
20260510033100 53 272 0.0 0.0 0.00 0.00 0.00 72 1019.2
20260510032600 54 272 0.0 0.0 0.00 0.00 0.00 71 1019.2
20260510032314 54 272 0.0 0.0 0.00 0.00 0.00 71 1019.1
20260510031550 55 272 0.0 0.0 0.00 0.00 0.00 70 1019.1
20260510031050 55 272 0.0 0.0 0.00 0.00 0.00 70 1018.9
20260510030548 56 272 0.0 0.0 0.00 0.00 0.00 69 1018.9
20260510030045 56 272 0.0 0.0 0.00 0.00 0.00 68 1018.9
20260510025545 57 272 0.0 0.0 0.00 0.00 0.00 67 1018.8
20260510025045 58 272 0.0 0.9 0.00 0.00 0.00 66 1018.8
20260510024540 58 272 0.0 0.9 0.00 0.00 0.00 64 1018.8
20260510024041 59 271 0.0 0.9 0.00 0.00 0.00 63 1018.7
20260510023539 60 271 0.0 0.9 0.00 0.00 0.00 62 1018.7
20260510023036 61 271 0.0 0.9 0.00 0.00 0.00 61 1018.8
20260510022536 61 271 0.0 0.9 0.00 0.00 0.00 60 1018.8
20260510022037 62 271 0.0 0.9 0.00 0.00 0.00 58 1018.8
20260510021526 62 271 0.0 0.0 0.00 0.00 0.00 57 1018.8
20260510021026 63 271 0.0 0.0 0.00 0.00 0.00 56 1018.7
20260510020525 63 271 0.0 0.9 0.00 0.00 0.00 55 1018.8
20260510020236 64 271 0.0 0.9 0.00 0.00 0.00 55 1018.7
20260510015512 64 281 0.0 1.7 0.00 0.00 0.00 50 1018.7
20260510015011 64 281 0.0 1.7 0.00 0.00 0.00 47 1018.7
20260510014512 65 223 0.0 4.3 0.00 0.00 0.00 51 1018.6
20260510014007 65 223 0.0 4.3 0.00 0.00 0.00 43 1018.6
20260510013507 65 302 0.0 2.6 0.00 0.00 0.00 47 1018.7
20260510013010 65 273 0.0 2.6 0.00 0.00 0.00 48 1018.7
20260510012727 65 260 0.0 1.7 0.00 0.00 0.00 46 1018.7
20260510012002 65 267 0.0 1.7 0.00 0.00 0.00 44 1018.7
20260510011503 66 294 0.0 0.9 0.00 0.02 0.00 45 1018.7
20260510011231 66 279 0.0 6.1 0.00 0.03 0.00 42 1018.7
20260510010504 66 327 1.7 6.1 0.00 0.03 0.00 42 1018.7
20260510010220 66 183 0.0 5.2 0.00 0.03 0.00 43 1018.6
20260510005454 67 298 0.0 5.2 0.00 0.03 0.00 42 1018.6
20260510004948 67 41 0.0 6.1 0.00 0.03 0.00 43 1018.6
20260510004450 67 130 0.9 6.1 0.00 0.03 0.00 42 1018.6
20260510003949 67 295 0.0 1.7 0.00 0.03 0.00 41 1018.5
20260510003705 67 94 0.0 1.7 0.00 0.03 0.00 40 1018.5
20260510002944 67 291 0.0 4.3 0.00 0.03 0.00 40 1018.5
20260510002444 67 232 0.0 4.3 0.00 0.03 0.00 39 1018.5
20260510001939 67 337 0.0 4.3 0.00 0.03 0.00 40 1018.5
20260510001435 68 304 0.0 4.3 0.00 0.03 0.00 42 1018.5
20260510001208 68 296 0.9 7.8 0.00 0.03 0.00 39 1018.5
20260510000435 69 337 1.7 7.8 0.00 0.03 0.00 41 1018.5
20260509235938 69 323 0.0 7.0 0.00 0.03 0.00 39 1018.4
20260509235421 69 284 0.0 7.0 0.00 0.03 0.00 39 1018.5
20260509234920 69 209 1.7 5.2 0.00 0.03 0.00 38 1018.4
20260509234636 69 185 0.0 2.6 0.00 0.03 0.00 41 1018.4
20260509233906 69 53 0.0 3.5 0.00 0.03 0.00 42 1018.5
20260509233401 68 265 0.0 3.5 0.00 0.03 0.00 41 1018.4
20260509232901 68 230 0.0 4.3 0.00 0.03 0.00 40 1018.5
20260509232357 68 318 0.9 7.0 0.00 0.03 0.00 41 1018.5
20260509231856 68 311 1.7 7.0 0.00 0.03 0.00 40 1018.6
20260509231619 68 24 0.9 6.1 0.00 0.03 0.00 40 1018.5
20260509230857 68 0 0.0 3.5 0.00 0.03 0.00 41 1018.6
20260509230354 67 25 0.9 3.5 0.00 0.03 0.00 42 1018.7
20260509225841 67 188 0.9 3.5 0.00 0.03 0.00 41 1018.7
20260509225338 67 0 0.9 7.0 0.00 0.03 0.00 41 1018.8
20260509224832 67 110 3.5 7.0 0.00 0.03 0.00 40 1018.8
20260509224321 67 261 0.0 4.3 0.00 0.03 0.00 42 1018.9
20260509223817 67 240 0.0 5.2 0.00 0.03 0.00 43 1019.1
20260509223317 67 155 0.9 7.0 0.00 0.03 0.00 41 1019.1
20260509222817 66 178 1.7 7.0 0.00 0.03 0.00 41 1019.2
20260509222318 66 131 0.0 3.5 0.00 0.03 0.00 44 1018.9
20260509221817 66 352 0.0 3.5 0.00 0.03 0.00 42 1019.1
20260509221312 66 348 0.9 3.5 0.00 0.03 0.00 43 1019.1
20260509220813 66 62 0.9 7.0 0.00 0.03 0.00 42 1019.1
20260509220542 67 336 0.9 7.0 0.00 0.03 0.00 42 1019.1
20260509215814 67 176 0.0 4.3 0.00 0.03 0.00 42 1019.2
20260509215317 67 321 0.9 4.3 0.00 0.03 0.00 41 1019.1
20260509214804 67 253 0.9 7.8 0.00 0.03 0.00 42 1019.1
20260509214304 67 272 0.9 7.8 0.00 0.03 0.00 43 1019.1
20260509213759 66 317 0.0 7.0 0.00 0.03 0.00 45 1019.2
20260509213259 66 171 0.0 7.0 0.00 0.03 0.00 42 1019.2
20260509213012 66 280 0.0 7.0 0.00 0.03 0.00 43 1019.3
20260509212257 67 128 0.9 4.3 0.00 0.03 0.00 41 1019.3
20260509211742 67 149 0.9 6.1 0.00 0.03 0.00 41 1019.3
20260509211232 67 201 0.0 7.0 0.00 0.03 0.00 41 1019.3
20260509210956 67 180 3.5 8.7 0.00 0.03 0.00 42 1019.4
20260509210707 67 154 1.7 8.7 0.00 0.03 0.00 41 1019.4
20260509205725 67 196 1.7 6.1 0.00 0.03 0.00 41 1019.4
20260509205214 67 202 0.0 6.1 0.00 0.03 0.00 44 1019.3
20260509204714 67 47 1.7 7.0 0.00 0.03 0.00 41 1019.3
20260509204216 67 348 1.7 7.0 0.00 0.03 0.00 44 1019.2
20260509203710 67 318 1.7 7.0 0.00 0.03 0.00 42 1019.3
20260509203210 67 317 0.9 7.0 0.00 0.03 0.00 45 1019.4
20260509202706 66 84 0.0 5.2 0.00 0.03 0.00 47 1019.3
20260509202206 65 103 0.0 5.2 0.00 0.03 0.00 45 1019.3
20260509201706 65 192 0.0 9.6 0.00 0.03 0.00 45 1019.4
20260509201206 65 130 0.0 9.6 0.00 0.03 0.00 43 1019.4
20260509200706 66 348 1.7 8.7 0.00 0.03 0.00 43 1019.4
20260509200207 66 217 2.6 7.8 0.00 0.03 0.00 43 1019.3
20260509195706 67 314 0.9 7.0 0.00 0.03 0.00 44 1019.4
20260509195202 67 211 0.9 7.0 0.00 0.03 0.00 46 1019.4
20260509194656 67 318 1.7 4.3 0.00 0.03 0.00 44 1019.4
20260509194200 66 175 0.9 4.3 0.00 0.03 0.00 45 1019.4
20260509193657 66 0 0.9 8.7 0.00 0.03 0.00 45 1019.4
20260509193158 66 51 0.0 8.7 0.00 0.03 0.00 49 1019.4
20260509192657 65 184 0.9 6.1 0.00 0.03 0.00 44 1019.4
20260509192153 65 321 0.9 3.5 0.00 0.03 0.00 44 1019.4
20260509191653 65 303 0.9 7.0 0.00 0.03 0.00 46 1019.4
20260509191153 65 0 0.9 7.8 0.00 0.03 0.00 49 1019.6
20260509190656 65 155 1.7 7.8 0.00 0.03 0.00 44 1019.5
20260509190154 65 311 1.7 6.1 0.00 0.03 0.00 47 1019.5
20260509185653 64 80 1.7 7.8 0.00 0.03 0.00 46 1019.5
20260509185153 64 323 1.7 7.8 0.00 0.03 0.00 47 1019.7
20260509184913 64 195 0.9 4.3 0.00 0.03 0.00 47 1019.6
20260509184138 63 96 1.7 8.7 0.00 0.03 0.00 49 1019.6
20260509183633 63 76 2.6 8.7 0.00 0.03 0.00 46 1019.5
20260509183134 63 182 3.5 7.8 0.00 0.03 0.00 47 1019.6
20260509182634 63 355 0.0 5.2 0.00 0.03 0.00 48 1019.5
20260509182134 63 288 0.9 5.2 0.00 0.03 0.00 49 1019.5
20260509181634 62 286 0.0 5.2 0.00 0.03 0.00 52 1019.6
20260509181350 62 335 0.9 6.1 0.00 0.03 0.00 51 1019.6
20260509180625 62 327 0.0 6.1 0.00 0.03 0.00 54 1019.7
20260509180125 62 196 3.5 7.8 0.00 0.03 0.00 51 1019.5
20260509175627 61 188 1.7 8.7 0.00 0.03 0.00 51 1019.6
20260509175124 61 203 1.7 8.7 0.00 0.03 0.00 54 1019.7
20260509174625 61 113 2.6 7.8 0.00 0.03 0.00 52 1019.6
20260509174124 61 167 1.7 8.7 0.00 0.03 0.00 53 1019.5
20260509173625 61 317 1.7 8.7 0.00 0.03 0.00 53 1019.6
20260509173125 61 119 1.7 7.0 0.00 0.03 0.00 56 1019.5
20260509172625 60 302 0.9 5.2 0.00 0.03 0.00 53 1019.7
20260509172121 60 80 0.9 5.2 0.00 0.03 0.00 55 1019.8
20260509171615 60 187 0.9 6.1 0.00 0.03 0.00 55 1019.7
20260509171116 59 242 0.9 7.0 0.00 0.03 0.00 56 1019.7
20260509170616 59 125 0.0 7.0 0.00 0.03 0.00 56 1019.7
20260509170116 58 34 0.0 4.3 0.00 0.03 0.00 62 1019.7
20260509165616 58 341 0.0 3.5 0.00 0.03 0.00 64 1019.6
20260509165111 57 125 0.0 2.6 0.00 0.03 0.00 63 1019.7
20260509165054 57 316 0.0 2.6 0.00 0.03 0.00 74 1019.7
20260509164327 57 67 0.0 2.6 0.00 0.03 0.00 79 1019.7
20260509163607 56 67 0.9 2.6 0.00 0.03 0.00 80 1019.8
20260509163107 56 138 0.0 2.6 0.00 0.03 0.00 85 1019.8
20260509162608 55 94 0.0 4.3 0.00 0.03 0.00 83 1019.7
20260509162102 54 267 0.0 6.1 0.00 0.03 0.00 87 1019.7
20260509161821 54 130 0.9 6.1 0.00 0.03 0.00 88 1019.8
20260509161103 53 103 0.9 2.6 0.00 0.03 0.00 91 1019.8
20260509160831 52 151 0.0 2.6 0.00 0.03 0.00 94 1019.8
20260509160059 52 151 0.0 3.5 0.00 0.03 0.00 96 1019.8
20260509155558 51 151 0.9 3.5 0.00 0.03 0.00 96 1019.8
20260509155054 51 209 0.9 2.6 0.00 0.03 0.00 97 1019.8
20260509154549 50 212 0.0 1.7 0.00 0.03 0.00 97 1019.8
20260509154049 50 212 0.0 1.7 0.00 0.03 0.00 97 1019.8
20260509153550 49 211 0.0 0.0 0.00 0.03 0.00 97 1019.8
20260509153543 49 211 0.0 0.0 0.00 0.03 0.00 98 1019.8
20260509152809 48 211 0.0 0.0 0.00 0.03 0.00 98 1019.8
20260509152052 48 211 0.0 0.0 0.00 0.03 0.00 98 1019.7
20260509151540 48 211 0.0 0.0 0.00 0.03 0.00 98 1019.7
20260509151032 47 211 0.0 0.0 0.00 0.03 0.00 98 1019.7
20260509150524 47 211 0.0 0.0 0.00 0.03 0.00 98 1019.7
20260509150025 47 211 0.0 0.0 0.00 0.03 0.00 98 1019.6
20260509145521 47 211 0.0 0.9 0.00 0.03 0.00 97 1019.6
20260509145015 47 211 0.0 0.9 0.00 0.03 0.00 98 1019.5
20260509144731 47 212 0.0 0.0 0.00 0.03 0.00 98 1019.5
20260509144000 46 212 0.0 0.9 0.00 0.03 0.00 98 1019.5
20260509143450 46 212 0.0 0.9 0.00 0.03 0.00 98 1019.4
20260509142953 46 212 0.0 0.0 0.00 0.03 0.00 98 1019.4
20260509142448 46 212 0.0 0.0 0.00 0.03 0.00 97 1019.3
20260509141925 45 212 0.0 0.0 0.00 0.03 0.00 97 1019.3
20260509141638 45 212 0.0 0.0 0.00 0.03 0.00 97 1019.3
20260509140916 45 212 0.0 0.0 0.00 0.03 0.00 97 1019.3
20260509140859 45 212 0.0 0.0 0.00 0.03 0.00 97 1019.2
20260509140131 44 212 0.0 0.0 0.00 0.03 0.00 97 1019.2
20260509135406 44 212 0.0 0.0 0.00 0.03 0.00 97 1019.1
20260509134901 44 212 0.0 0.0 0.00 0.03 0.00 97 1018.9
20260509134402 43 212 0.0 0.0 0.00 0.03 0.00 97 1018.9
20260509133904 43 212 0.0 0.0 0.00 0.03 0.00 97 1018.8
20260509133354 43 212 0.0 0.0 0.00 0.03 0.00 97 1018.8
20260509132847 43 212 0.0 0.0 0.00 0.03 0.00 96 1018.8
20260509132342 43 212 0.0 0.0 0.00 0.03 0.00 96 1018.7
20260509131842 42 212 0.0 0.0 0.00 0.03 0.00 96 1018.7
20260509131342 42 212 0.0 0.0 0.00 0.03 0.00 96 1018.6
20260509130842 42 212 0.0 0.0 0.00 0.03 0.00 96 1018.6
20260509130057 42 212 0.0 0.0 0.00 0.03 0.00 96 1018.4
20260509125333 42 212 0.0 0.0 0.00 0.03 0.00 96 1018.4
20260509124830 42 212 0.0 0.0 0.00 0.03 0.00 96 1018.4
20260509124550 42 212 0.0 0.0 0.00 0.03 0.00 95 1018.4
20260509123828 43 212 0.0 0.0 0.00 0.03 0.00 95 1018.3
20260509123324 43 212 0.0 0.0 0.00 0.03 0.00 95 1018.3
20260509122823 43 212 0.0 0.0 0.00 0.03 0.00 96 1018.2
20260509122318 43 212 0.0 0.0 0.00 0.03 0.00 96 1018.3
20260509121814 43 212 0.0 0.0 0.00 0.03 0.00 96 1018.3
20260509121317 44 212 0.0 0.0 0.00 0.03 0.00 96 1018.3
20260509120809 44 212 0.0 0.0 0.00 0.03 0.00 96 1018.2
20260509120300 44 212 0.0 0.0 0.00 0.03 0.00 96 1018.2
20260509115800 44 212 0.0 0.0 0.00 0.03 0.00 96 1018.1
20260509115258 44 212 0.0 0.0 0.00 0.03 0.00 96 1017.9
20260509114754 44 212 0.0 0.0 0.00 0.03 0.00 96 1017.9
20260509114240 44 212 0.0 0.0 0.00 0.03 0.00 96 1018.1
20260509113730 44 212 0.0 0.0 0.00 0.03 0.00 96 1017.9
20260509113450 44 212 0.0 0.0 0.00 0.03 0.00 96 1017.8
20260509112731 44 212 0.0 0.0 0.00 0.03 0.00 96 1017.8
20260509112446 44 212 0.0 0.0 0.00 0.03 0.00 96 1017.8
20260509111943 44 212 0.0 0.0 0.00 0.03 0.00 96 1017.7
20260509111220 44 212 0.0 0.0 0.00 0.03 0.00 96 1017.7
20260509110716 44 212 0.0 0.0 0.00 0.03 0.00 96 1017.6
20260509110213 44 212 0.0 0.0 0.00 0.03 0.00 96 1017.6
20260509105711 44 212 0.0 0.0 0.00 0.03 0.00 96 1017.6
20260509105435 44 212 0.0 0.0 0.00 0.03 0.00 96 1017.5
20260509104710 44 212 0.0 0.0 0.00 0.03 0.00 96 1017.5
20260509104213 44 212 0.0 0.0 0.00 0.03 0.00 95 1017.5
20260509103928 44 212 0.0 0.0 0.00 0.03 0.00 95 1017.4
20260509103202 44 212 0.0 0.0 0.00 0.03 0.00 95 1017.5
20260509102914 45 212 0.0 0.0 0.00 0.03 0.00 95 1017.4
20260509102357 45 212 0.0 0.0 0.00 0.03 0.00 95 1017.4
20260509101637 45 212 0.0 0.0 0.00 0.03 0.00 95 1017.3
20260509101136 45 212 0.0 0.0 0.00 0.03 0.00 95 1017.3
20260509100632 45 212 0.0 0.0 0.00 0.03 0.00 95 1017.2
20260509100132 45 212 0.0 0.0 0.00 0.03 0.00 95 1017.3
20260509095635 45 212 0.0 0.0 0.00 0.03 0.00 95 1017.2
20260509095123 45 212 0.0 0.0 0.00 0.03 0.00 95 1017.2
20260509094623 45 212 0.0 0.0 0.00 0.03 0.00 95 1017.0
20260509094344 45 212 0.0 0.0 0.00 0.03 0.00 95 1017.0
20260509094222 45 212 0.0 0.0 0.00 0.03 0.00 95 1017.0
20260509093121 45 212 0.0 0.0 0.00 0.03 0.00 95 1017.0
20260509092619 45 212 0.0 0.0 0.00 0.03 0.00 95 1016.9
20260509092118 45 212 0.0 0.0 0.00 0.03 0.00 95 1016.9
20260509091604 46 212 0.0 0.0 0.00 0.03 0.00 95 1016.9
20260509091550 46 212 0.0 0.0 0.00 0.03 0.00 95 1016.9
20260509090603 46 212 0.0 0.0 0.00 0.03 0.00 95 1016.9
20260509090322 46 212 0.0 0.0 0.00 0.03 0.00 95 1016.8
20260509085604 46 212 0.0 0.0 0.00 0.03 0.00 95 1016.7
20260509085324 46 212 0.0 0.0 0.00 0.03 0.00 95 1016.8
20260509085048 46 212 0.0 0.0 0.00 0.03 0.00 95 1016.7
20260509084055 46 212 0.0 0.0 0.00 0.03 0.00 95 1016.7
20260509083801 46 212 0.0 0.0 0.00 0.03 0.00 95 1016.7
20260509083034 47 212 0.0 0.0 0.00 0.03 0.00 95 1016.7
20260509082530 47 212 0.0 0.0 0.00 0.03 0.00 95 1016.8
20260509082027 47 212 0.0 0.0 0.00 0.03 0.00 95 1016.8
20260509081525 47 212 0.0 0.0 0.00 0.03 0.00 95 1016.7
20260509081015 47 212 0.0 0.0 0.00 0.03 0.00 95 1016.8
20260509080724 47 212 0.0 0.0 0.00 0.03 0.00 95 1016.7
20260509075956 47 212 0.0 0.0 0.00 0.03 0.00 95 1016.7
20260509075450 47 212 0.0 0.0 0.00 0.03 0.00 95 1016.7
20260509074951 47 212 0.0 0.0 0.00 0.03 0.00 95 1016.7
20260509074450 48 212 0.0 0.0 0.00 0.03 0.00 95 1016.7
20260509073951 48 212 0.0 0.0 0.00 0.03 0.00 95 1016.7
20260509073446 48 212 0.0 0.0 0.00 0.03 0.00 95 1016.7
20260509072941 48 212 0.0 0.0 0.00 0.03 0.00 95 1016.8
20260509072917 48 212 0.0 0.0 0.00 0.03 0.00 95 1016.7
20260509071932 48 212 0.0 0.0 0.00 0.03 0.00 95 1016.7
20260509071433 48 212 0.0 0.0 0.00 0.03 0.00 95 1016.8
20260509071428 48 212 0.0 0.0 0.00 0.03 0.00 95 1016.8
20260509070427 48 212 0.0 0.0 0.00 0.03 0.00 95 1016.7
20260509065918 48 212 0.0 0.0 0.00 0.03 0.00 95 1016.7
20260509065418 48 212 0.0 0.0 0.00 0.03 0.00 95 1016.7
20260509065134 48 212 0.0 0.0 0.00 0.03 0.00 95 1016.7
20260509064408 48 212 0.0 0.0 0.00 0.03 0.00 95 1016.6
20260509063903 49 212 0.0 0.0 0.00 0.03 0.00 95 1016.6
20260509063403 49 212 0.0 0.0 0.00 0.03 0.00 95 1016.7
20260509062906 49 212 0.0 0.0 0.00 0.03 0.00 95 1016.7
20260509062850 49 212 0.0 0.0 0.00 0.03 0.00 95 1016.6
20260509061854 49 212 0.0 0.0 0.00 0.03 0.00 95 1016.6
20260509061353 49 212 0.0 1.7 0.00 0.03 0.00 95 1016.5
20260509060854 49 212 0.0 2.6 0.00 0.03 0.00 95 1016.6
20260509060344 49 212 0.0 1.7 0.00 0.03 0.00 95 1016.6
20260509055844 49 211 0.0 0.0 0.00 0.03 0.03 95 1016.6
20260509055340 49 211 0.0 0.0 0.00 0.03 0.03 95 1016.6
20260509054839 49 211 0.0 0.0 0.00 0.03 0.03 95 1016.6
20260509054343 49 211 0.0 0.0 0.00 0.03 0.03 95 1016.5
20260509053830 49 211 0.0 0.0 0.00 0.03 0.03 95 1016.5
20260509053319 49 211 0.0 0.0 0.00 0.03 0.03 94 1016.4
20260509052821 49 211 0.0 0.0 0.00 0.03 0.03 94 1016.4
20260509052318 49 211 0.0 0.0 0.00 0.03 0.03 94 1016.4
20260509052131 49 211 0.0 0.0 0.00 0.03 0.03 94 1016.3
20260509052027 49 211 0.0 0.0 0.00 0.03 0.03 94 1016.4
20260509051029 49 211 0.0 0.0 0.00 0.03 0.03 94 1016.4
20260509050302 49 211 0.0 0.0 0.00 0.03 0.03 94 1016.4